Regional Weather Roundup
Issued by NWS Sterling, VA

Home | Current Version | Previous Version | Graphics & Text | Print | Product List | Glossary On
Versions: 1 2 3 4 5 6 7 8 9 10 11 12 13 14 15 16 17 18 19 20 21 22 23 24 25 26 27
000
ASUS41 KLWX 281010
RWRLWX

REGIONAL WEATHER ROUNDUP
NATIONAL WEATHER SERVICE BALTIMORE MD/WASHINGTON DC
600 AM EDT THU JUL 28 2016

Note: "FAIR" indicates few or no clouds below 12,000 feet
with no significant weather and/or obstructions to visibility.
 TC=TEMPERATURE CELSIUS

 * =Non NWS site. Station does not report precipitation (e.g. rain,
    snow, etc.), thunder, or fog.

DCZ001-MDZ009-015-VAZ040>042-051-053>054-281100-
WASHINGTON METRO

CITY           SKY/WX    TMP DP  RH WIND       PRES   REMARKS
WASHINGTON NAT MOCLDY    82  73  74 SW3       29.90S
DULLES         MOCLDY    75  70  84 NW5       29.91S
ANDREWS AFB    CLOUDY    77  74  91 SW3       29.90S
FT BELVOIR     FAIR      75  73  93 CALM      29.89S
QUANTICO       FAIR      78  75  90 NW3       29.90S
COLLEGE PARK*  FAIR      73  72  94 CALM      29.89S
LEESBURG*      FAIR      75  73  94 W10       29.92S
MANASSAS*      FAIR      75  75 100 S3        29.90S
GAITHERSBURG*  PTCLDY    73  68  83 CALM      29.95S

$$

MDZ006>007-011-014-281100-
BALTIMORE METRO

CITY           SKY/WX    TMP DP  RH WIND       PRES   REMARKS
BWI AIRPORT    CLOUDY    75  72  90 CALM      29.89S
MD SCIENCE CTR   N/A     82  73  74 MISG      29.90R
MARTIN STATE   PTCLDY    77  77 100 CALM      29.91R
ANNAPOLIS      CLOUDY    81  76  84 CALM      29.89R
FORT MEADE*    CLOUDY    72  70  94 CALM      29.92S

$$

MDZ012-015-019>023-281100-
MARYLAND EASTERN SHORE

CITY           SKY/WX    TMP DP  RH WIND       PRES   REMARKS
OCEAN CITY     PTCLDY   N/A N/A N/A CALM      29.91R
SALISBURY      PTCLDY    75  74  96 CALM      29.90S FOG
EASTON*        MOCLDY    79  79 100 CALM      29.93S FOG

$$

MDZ017>025-281100-
SOUTHERN MARYLAND

CITY           SKY/WX    TMP DP  RH WIND       PRES   REMARKS
PATUXENT RIVER MOCLDY    77  75  93 SW6       29.89S
ST INIGOES     PTCLDY    78  76  93 CALM      29.89S
LEONARDTOWN*   PTCLDY    75  73  94 CALM      29.91S

$$

MDZ003>005-281100-
NORTH CENTRAL MARYLAND

CITY           SKY/WX    TMP DP  RH WIND       PRES   REMARKS
FREDERICK*     PTCLDY    70  70 100 CALM      29.94R
HAGERSTOWN APT CLEAR     74  69  85 E5        29.92F

$$

MDZ501>502-281100-
WESTERN MARYLAND

CITY           SKY/WX    TMP DP  RH WIND       PRES   REMARKS
OAKLAND*       CLOUDY    68  68 100 S3        30.05S FOG
CUMBERLAND*    CLEAR     72  68  88 CALM      29.98R

$$

VAZ025>031-281100-
SHENANDOAH VALLEY

CITY           SKY/WX    TMP DP  RH WIND       PRES   REMARKS
WINCHESTER*    FAIR      73  72  94 SW3       29.93R
FRONT ROYAL*   FAIR      72  70  94 S6        29.92R
LURAY*         NOT AVBL
NEW MARKET*    FAIR     N/A N/A N/A CALM      29.94S
STAUNTON*      FAIR      69  69 100 CALM      29.99R FOG
WAYNESBORO*    FAIR      70  69  97 CALM      29.99R

$$

WVZ021-048>050-054>055-281100-
EASTERN WEST VIRGINIA PANHANDLE

CITY           SKY/WX    TMP DP  RH WIND       PRES   REMARKS
MARTINSBURG    FAIR      71  69  93 CALM      29.92R
PETERSBURG*    FAIR      71  70  96 CALM      29.96R FOG

$$

VAZ036>039-050-281100-
CENTRAL FOOTHILLS

CITY           SKY/WX    TMP DP  RH WIND       PRES   REMARKS
CHARLOTTESVILL FAIR      73  71  93 SW6       29.93R
CULPEPER*      FAIR      73  73 100 CALM      29.92R FOG
ORANGE*          N/A     73  73 100 CALM      29.93S
GORDONSVILLE*  PTSUNNY   72  72 100 CALM      29.91S
WARRENTON*     FAIR      75  70  85 CALM      29.90S HAZE

$$

VAZ055>057-281100-
NORTH AND CENTRAL PIEDMONT

CITY           SKY/WX    TMP DP  RH WIND       PRES   REMARKS
FREDERICKSBRG* FAIR      74  74 100 CALM      29.89S
STAFFORD*      FAIR      72  71  95 CALM      29.94S FOG

$$

NCZ024-NYZ072-PAZ021-071-VAZ022-071-281100-
OTHER REGIONAL OBSERVATIONS

CITY           SKY/WX    TMP DP  RH WIND       PRES   REMARKS
NEW YORK CITY  CLEAR     77  71  82 CALM      29.93S
PHILADELPHIA   MOCLDY    76  70  82 CALM      29.91S
PITTSBURGH     MOCLDY    71  64  78 CALM      29.92S
ROANOKE        MOCLDY    75  73  93 N5        30.00S
RICHMOND       MOCLDY    74  72  93 S3        29.91S
RALEIGH        MOCLDY    74  72  93 CALM      29.93R

$$

ANZ530>537-281100-
MARINE OBSERVATIONS

STATION/POSITION TIME  TEMP    WIND        PRES
                       AIR SEA DIR/SP/G
                 (UTC) (F)     (DEG/KT/KT) (MB)
THOMAS PT LIGHT  1000   82 85   90/  2/  2 1013.5S
BALT KEY BRIDGE  0948   80     200/  4/  4 1011.9S
COVE POINT       0948   79     220/  4/  5 1012.8R
LEWISETTA        0948   79 87  250/  6/  7 1012.1R
SOLOMONS ISLAND  0948   80 86  230/  5/  6   N/A
PINEY POINT      0948          270/  6/  7   N/A

$$





USA.gov is the U.S. government's official web portal to all federal, state and local government web resources and services.